GW2033 Weather Reports


time (UTC)temp
F
wind
direction
speed
knots
gust
knots
rain 1hr
in
rain 24hr
in
rain mn
in
humidity
%
barometer
mb
20260505070618 62 0 3.5 11.3 0.00 0.01 0.01 81 1005.1
20260505070114 63 12 2.6 11.3 0.00 0.01 0.01 80 1005.0
20260505065610 63 24 3.5 10.4 0.00 0.01 0.01 80 1005.1
20260505065107 64 0 5.2 15.6 0.00 0.01 0.01 79 1005.5
20260505064604 64 8 7.0 9.6 0.00 0.01 0.01 80 1005.0
20260505064102 64 50 3.5 9.6 0.00 0.01 0.01 81 1004.9
20260505063559 67 16 4.3 9.6 0.00 0.01 0.01 83 1004.9
20260505063055 67 351 5.2 7.8 0.00 0.01 0.01 86 1004.9
20260505062551 67 53 1.7 6.1 0.00 0.01 0.01 86 1004.4
20260505062049 67 9 4.3 7.8 0.00 0.01 0.01 86 1004.5
20260505061546 67 35 2.6 4.3 0.00 0.01 0.01 86 1004.3
20260505061044 67 29 2.6 4.3 0.00 0.01 0.01 86 1004.4
20260505060541 67 30 3.5 5.2 0.00 0.01 0.01 87 1004.2
20260505060038 67 46 1.7 4.3 0.00 0.01 0.01 88 1004.4
20260505055533 67 36 2.6 3.5 0.00 0.01 0.01 88 1004.6
20260505055030 66 11 3.5 7.8 0.00 0.01 0.01 89 1004.5
20260505054527 67 357 1.7 2.6 0.00 0.01 0.01 89 1004.2
20260505054026 67 23 0.9 2.6 0.05 0.01 0.01 86 1004.3
20260505053522 68 274 1.7 2.6 0.07 0.01 0.01 84 1004.3
20260505053019 69 89 0.0 1.7 0.02 0.00 0.00 80 1003.6
20260505052516 69 115 0.0 1.7 0.00 0.00 0.00 78 1004.3
20260505052014 69 42 1.7 2.6 0.00 0.00 0.00 77 1004.2
20260505051510 69 25 1.7 2.6 0.00 0.00 0.00 76 1004.1
20260505051008 69 39 1.7 1.7 0.00 0.00 0.00 77 1003.9
20260505050506 68 1 1.7 3.5 0.00 0.00 0.00 78 1003.9
20260505041434 69 78 0.0 1.7 0.00 0.00 0.00 75 1003.7
20260505040931 70 128 0.9 1.7 0.00 0.00 0.00 75 1003.6
20260505040428 70 238 1.7 2.6 0.00 0.00 0.00 74 1003.6
20260505035925 70 25 0.0 0.9 0.00 0.00 0.00 73 1003.3
20260505035421 71 103 0.0 2.6 0.00 0.00 0.00 73 1003.3
20260505034919 71 76 0.0 1.7 0.00 0.00 0.00 72 1003.3
20260505034415 71 122 0.9 2.6 0.00 0.00 0.00 71 1003.4
20260505033912 72 156 1.7 2.6 0.00 0.00 0.00 70 1003.5
20260505033409 72 114 0.9 1.7 0.00 0.00 0.00 70 1003.9
20260505032907 72 126 0.0 1.7 0.00 0.00 0.00 69 1003.9
20260505032403 72 145 0.9 4.3 0.00 0.00 0.00 69 1003.9
20260505031900 72 136 0.0 7.8 0.00 0.00 0.00 68 1004.0
20260505031357 72 143 0.0 2.6 0.00 0.00 0.00 68 1004.0
20260505030854 73 230 0.0 1.7 0.00 0.00 0.00 67 1004.1
20260505030350 73 242 0.0 2.6 0.00 0.00 0.00 67 1003.9
20260505025845 73 166 0.0 8.7 0.00 0.00 0.00 66 1004.2
20260505025343 73 207 1.7 7.0 0.00 0.00 0.00 66 1004.1
20260505024842 73 117 0.0 3.5 0.00 0.00 0.00 66 1003.7
20260505024339 73 167 5.2 6.1 0.00 0.00 0.00 66 1003.7
20260505023836 73 113 0.9 3.5 0.00 0.00 0.00 66 1003.5
20260505023333 73 117 0.0 2.6 0.00 0.00 0.00 65 1003.7
20260505022830 74 154 0.0 2.6 0.00 0.00 0.00 64 1004.1
20260505022327 73 120 5.2 6.1 0.00 0.00 0.00 64 1003.9
20260505021824 74 217 0.0 6.1 0.00 0.00 0.00 63 1004.0
20260505021321 74 221 0.0 3.5 0.00 0.00 0.00 62 1004.1
20260505020816 74 194 2.6 7.0 0.00 0.00 0.00 61 1004.1
20260505020312 74 189 2.6 5.2 0.00 0.00 0.00 61 1004.1
20260505015809 74 140 2.6 6.1 0.00 0.00 0.00 61 1003.3
20260505015307 74 140 3.5 9.6 0.00 0.00 0.00 60 1003.2
20260505014804 75 165 2.6 7.8 0.00 0.00 0.00 59 1003.1
20260505014301 75 176 2.6 9.6 0.00 0.00 0.00 59 1003.0
20260505013757 75 160 3.5 7.8 0.00 0.00 0.00 58 1003.1
20260505013254 75 152 0.0 5.2 0.00 0.00 0.00 58 1002.9
20260505012752 75 136 3.5 8.7 0.00 0.00 0.00 57 1002.7
20260505012249 75 166 3.5 7.8 0.00 0.00 0.00 57 1002.7
20260505011745 76 127 2.6 6.1 0.00 0.00 0.00 56 1002.8
20260505011237 76 150 4.3 10.4 0.00 0.00 0.00 56 1002.7
20260505010732 76 133 5.2 7.8 0.00 0.00 0.00 55 1002.7
20260505010229 76 144 2.6 6.1 0.00 0.00 0.00 55 1002.6
20260505005726 76 52 0.9 7.0 0.00 0.00 0.00 55 1002.6
20260505005223 77 205 1.7 6.1 0.00 0.00 0.00 54 1002.7
20260505004720 77 160 0.9 7.8 0.00 0.00 0.00 54 1002.7
20260505004216 77 124 2.6 6.1 0.00 0.00 0.00 53 1002.8
20260505003714 77 132 7.8 9.6 0.00 0.00 0.00 52 1002.8
20260505003212 77 121 3.5 7.0 0.00 0.00 0.00 52 1002.9
20260505002707 77 130 3.5 10.4 0.00 0.00 0.00 51 1002.9
20260505002205 78 181 0.9 5.2 0.00 0.00 0.00 51 1002.9
20260505001702 78 212 2.6 8.7 0.00 0.00 0.00 51 1003.0
20260505001159 78 184 0.9 7.8 0.00 0.00 0.00 50 1003.1
20260505000657 78 107 1.7 3.5 0.00 0.00 0.00 49 1002.9
20260505000154 78 144 2.6 7.8 0.00 0.00 0.00 49 1002.9
20260504235650 79 149 5.2 7.8 0.00 0.00 0.00 48 1003.0
20260504235147 79 142 5.2 10.4 0.00 0.00 0.00 48 1003.1
20260504234644 79 133 2.6 11.3 0.00 0.00 0.00 48 1003.1
20260504234142 79 138 1.7 11.3 0.00 0.00 0.00 47 1003.0
20260504233637 79 139 5.2 11.3 0.00 0.00 0.00 46 1003.1
20260504233133 80 219 4.3 4.3 0.00 0.00 0.00 46 1003.2
20260504232631 80 150 1.7 7.8 0.00 0.00 0.00 46 1003.1
20260504232128 80 193 2.6 11.3 0.00 0.00 0.00 45 1003.1
20260504231624 80 172 5.2 11.3 0.00 0.00 0.00 45 1003.0
20260504231121 80 165 3.5 7.0 0.00 0.00 0.00 46 1003.1
20260504230617 80 218 6.1 8.7 0.00 0.00 0.00 45 1003.0
20260504230116 81 134 7.8 9.6 0.00 0.00 0.00 44 1003.1
20260504225614 81 201 2.6 6.1 0.00 0.00 0.00 45 1003.1
20260504225110 80 191 2.6 9.6 0.00 0.00 0.00 45 1003.0
20260504224606 81 180 3.5 11.3 0.00 0.00 0.00 44 1002.9
20260504224104 81 175 4.3 9.6 0.00 0.00 0.00 44 1003.0
20260504223600 82 141 6.1 17.4 0.00 0.00 0.00 43 1003.1
20260504223056 82 197 4.3 12.2 0.00 0.00 0.00 43 1003.0
20260504222553 82 164 3.5 10.4 0.00 0.00 0.00 42 1003.0
20260504222050 82 168 2.6 10.4 0.00 0.00 0.00 43 1003.0
20260504221548 82 198 0.9 11.3 0.00 0.00 0.00 42 1003.0
20260504221044 82 168 7.8 9.6 0.00 0.00 0.00 43 1003.0
20260504220541 83 190 1.7 11.3 0.00 0.00 0.00 42 1003.0
20260504220038 83 152 2.6 11.3 0.00 0.00 0.00 42 1003.0
20260504215534 83 158 5.2 11.3 0.00 0.00 0.00 42 1002.9
20260504215032 84 194 3.5 9.6 0.00 0.00 0.00 42 1003.2
20260504214528 84 209 3.5 11.3 0.00 0.00 0.00 40 1003.3
20260504214024 84 137 1.7 11.3 0.00 0.00 0.00 42 1003.2
20260504213521 84 156 5.2 16.5 0.00 0.00 0.00 40 1003.3
20260504213018 84 170 2.6 7.8 0.00 0.00 0.00 40 1003.2
20260504212514 85 168 13.0 13.0 0.00 0.00 0.00 39 1003.1
20260504212011 85 149 4.3 10.4 0.00 0.00 0.00 39 1003.4
20260504211508 86 182 7.0 15.6 0.00 0.00 0.00 38 1003.4
20260504211005 86 144 4.3 10.4 0.00 0.00 0.00 37 1003.3
20260504210502 86 162 1.7 14.8 0.00 0.00 0.00 37 1003.4
20260504205959 85 152 4.3 12.2 0.00 0.00 0.00 38 1003.5
20260504205456 86 190 4.3 12.2 0.00 0.00 0.00 38 1003.6
20260504204955 86 166 2.6 13.0 0.00 0.00 0.00 37 1003.6
20260504204452 86 181 4.3 14.8 0.00 0.00 0.00 37 1003.6
20260504203951 87 133 1.7 10.4 0.00 0.00 0.00 36 1003.7
20260504203449 88 13 0.9 5.2 0.00 0.00 0.00 37 1003.5
20260504202945 87 156 4.3 7.8 0.00 0.00 0.00 36 1003.6
20260504202441 87 153 6.1 13.9 0.00 0.00 0.00 35 1003.6
20260504201938 87 190 3.5 8.7 0.00 0.00 0.00 36 1004.1
20260504201435 86 178 3.5 11.3 0.00 0.00 0.00 36 1004.0
20260504200933 87 156 0.0 4.3 0.00 0.00 0.00 38 1004.2
20260504200430 86 151 6.1 11.3 0.00 0.00 0.00 35 1004.1
20260504195926 87 185 2.6 5.2 0.00 0.00 0.00 35 1004.2
20260504195422 88 205 2.6 5.2 0.00 0.00 0.00 35 1004.5
20260504194919 86 318 1.7 7.8 0.00 0.00 0.00 36 1004.5
20260504194414 86 222 2.6 7.8 0.00 0.00 0.00 36 1004.5
20260504193911 86 160 1.7 4.3 0.00 0.00 0.00 36 1004.5
20260504193408 85 210 2.6 11.3 0.00 0.00 0.00 37 1004.5
20260504192907 85 182 1.7 10.4 0.00 0.00 0.00 36 1005.0
20260504192404 85 239 1.7 5.2 0.00 0.00 0.00 38 1004.9
20260504191903 84 166 1.7 5.2 0.00 0.00 0.00 39 1005.1
20260504191400 85 178 2.6 4.3 0.00 0.00 0.00 37 1004.9
20260504190855 86 210 4.3 7.0 0.00 0.00 0.00 36 1004.9
20260504190351 86 175 2.6 6.1 0.00 0.00 0.00 36 1005.0
20260504185848 86 154 0.0 4.3 0.00 0.00 0.00 35 1005.2
20260504185345 86 165 2.6 7.0 0.00 0.00 0.00 37 1005.3
20260504184841 85 274 3.5 6.1 0.00 0.00 0.00 36 1005.1
20260504184337 85 146 2.6 3.5 0.00 0.00 0.00 37 1005.2
20260504183833 85 234 2.6 4.3 0.00 0.00 0.00 37 1005.2
20260504183331 83 177 1.7 4.3 0.00 0.00 0.00 39 1005.3
20260504182828 84 183 0.0 4.3 0.00 0.00 0.00 38 1005.3
20260504182325 84 175 1.7 5.2 0.00 0.00 0.00 39 1005.4
20260504181822 82 345 2.6 3.5 0.00 0.00 0.00 40 1005.7
20260504181320 81 193 2.6 12.2 0.00 0.00 0.00 40 1005.6
20260504180819 82 208 2.6 5.2 0.00 0.00 0.00 40 1005.6
20260504180317 82 213 1.7 3.5 0.00 0.00 0.00 41 1005.5
20260504175814 81 175 1.7 8.7 0.00 0.00 0.00 41 1005.9
20260504175311 80 181 1.7 7.8 0.00 0.00 0.00 41 1005.7
20260504174809 81 191 2.6 8.7 0.00 0.00 0.00 43 1005.6
20260504174306 80 166 3.5 6.1 0.00 0.00 0.00 43 1005.9
20260504173803 79 227 6.1 7.0 0.00 0.00 0.00 43 1005.9
20260504173300 79 147 3.5 7.0 0.00 0.00 0.00 45 1005.9
20260504172756 78 139 2.6 7.0 0.00 0.00 0.00 44 1005.9
20260504172253 78 182 2.6 7.0 0.00 0.00 0.00 43 1006.0
20260504171749 78 171 3.5 6.1 0.00 0.00 0.00 45 1005.8
20260504171247 78 216 1.7 8.7 0.00 0.00 0.00 45 1005.9
20260504170743 79 181 3.5 7.8 0.00 0.00 0.00 43 1005.9
20260504170241 77 236 0.0 9.6 0.00 0.00 0.00 46 1005.8
20260504160159 74 176 6.1 9.6 0.00 0.00 0.00 48 1005.8
20260504151127 71 160 2.6 16.5 0.00 0.00 0.00 52 1005.8
20260504150624 69 183 3.5 13.0 0.00 0.00 0.00 53 1006.0
20260504150121 69 198 4.3 10.4 0.00 0.00 0.00 53 1006.1
20260504141050 68 170 1.7 12.2 0.00 0.00 0.00 54 1006.2
20260504140546 68 165 4.3 7.8 0.00 0.00 0.00 54 1006.1
20260504130510 62 167 2.6 13.9 0.00 0.00 0.00 60 1006.2
20260504110357 63 180 1.7 12.2 0.00 0.00 0.00 55 1006.6
20260504100315 64 143 3.5 14.8 0.00 0.00 0.00 51 1006.9
20260504081709 67 178 2.6 8.7 0.00 0.00 0.00 48 1007.9
20260504081205 67 177 3.5 14.8 0.00 0.00 0.00 47 1007.9
20260504080701 67 195 7.0 16.5 0.00 0.00 0.00 47 1007.8
20260504080158 67 137 1.7 20.9 0.00 0.00 0.00 47 1007.8